Satellite: NOAA-11
Catalog number: 19531
Epoch time:      08254.87691512
Element set:    0314
Inclination:      098.7962 deg
RA of node:       343.0008 deg
Eccentricity:    0.0011371
Arg of perigee:   180.7090 deg
Mean anomaly:     179.4089 deg
Mean motion:   14.14877223 rev/day
Decay rate:       1.91e-06 rev/day^2
Epoch rev:           03002
Checksum:              287

Satellite: NOAA-12
Catalog number: 21263
Epoch time:      08254.97225860
Element set:    0856
Inclination:      098.7713 deg
RA of node:       256.9319 deg
Eccentricity:    0.0011484
Arg of perigee:   235.3833 deg
Mean anomaly:     124.6264 deg
Mean motion:   14.25545290 rev/day
Decay rate:        4.0e-08 rev/day^2
Epoch rev:           90061
Checksum:              303

Satellite: MET-3/5
Catalog number: 21655
Epoch time:      08254.96250834
Element set:    0515
Inclination:      082.5513 deg
RA of node:       043.7681 deg
Eccentricity:    0.0013716
Arg of perigee:   154.0710 deg
Mean anomaly:     206.1101 deg
Mean motion:   13.17016842 rev/day
Decay rate:        5.1e-07 rev/day^2
Epoch rev:           82087
Checksum:              269

Satellite: MET-2/21
Catalog number: 22782
Epoch time:      08255.48041534
Element set:     247
Inclination:      082.5463 deg
RA of node:       043.1054 deg
Eccentricity:    0.0023806
Arg of perigee:   050.5646 deg
Mean anomaly:     309.7608 deg
Mean motion:   13.83630746 rev/day
Decay rate:        7.1e-07 rev/day^2
Epoch rev:           75906
Checksum:              298

Satellite: OKEAN-4
Catalog number: 23317
Epoch time:      08254.90356706
Element set:     690
Inclination:      082.5371 deg
RA of node:       235.0777 deg
Eccentricity:    0.0021438
Arg of perigee:   200.6557 deg
Mean anomaly:     159.3814 deg
Mean motion:   14.82633339 rev/day
Decay rate:        8.6e-07 rev/day^2
Epoch rev:           75098
Checksum:              317

Satellite: NOAA-14
Catalog number: 23455
Epoch time:      08254.61756635
Element set:    0299
Inclination:      098.9392 deg
RA of node:       326.8813 deg
Eccentricity:    0.0008583
Arg of perigee:   260.8963 deg
Mean anomaly:     099.1260 deg
Mean motion:   14.13748578 rev/day
Decay rate:       2.11e-06 rev/day^2
Epoch rev:           70642
Checksum:              339

Satellite: NOAA-15
Catalog number: 25338
Epoch time:      08254.89677379
Element set:    0616
Inclination:      098.5626 deg
RA of node:       244.6052 deg
Eccentricity:    0.0011173
Arg of perigee:   147.0688 deg
Mean anomaly:     213.1174 deg
Mean motion:   14.24722913 rev/day
Decay rate:      -1.24e-06 rev/day^2
Epoch rev:           53700
Checksum:              308

Satellite: RESURS
Catalog number: 25394
Epoch time:      08254.96255097
Element set:    0020
Inclination:      098.3775 deg
RA of node:       294.9806 deg
Eccentricity:    0.0001365
Arg of perigee:   348.2617 deg
Mean anomaly:     011.8530 deg
Mean motion:   14.24169781 rev/day
Decay rate:       -6.0e-08 rev/day^2
Epoch rev:           52865
Checksum:              315

Satellite: FENGYUN1
Catalog number: 25730
Epoch time:      08254.98786204
Element set:    0568
Inclination:      098.7279 deg
RA of node:       227.8861 deg
Eccentricity:    0.0020205
Arg of perigee:   288.9159 deg
Mean anomaly:     070.9821 deg
Mean motion:   14.07772822 rev/day
Decay rate:       5.33e-06 rev/day^2
Epoch rev:           48103
Checksum:              330

Satellite: OKEAN-0
Catalog number: 25860
Epoch time:      08255.56021411
Element set:     469
Inclination:      097.7582 deg
RA of node:       242.3196 deg
Eccentricity:    0.0001550
Arg of perigee:   046.1530 deg
Mean anomaly:     313.9802 deg
Mean motion:   14.73535139 rev/day
Decay rate:        2.2e-07 rev/day^2
Epoch rev:           49211
Checksum:              274

Satellite: NOAA-16
Catalog number: 26536
Epoch time:      08254.91873422
Element set:    0090
Inclination:      099.1649 deg
RA of node:       246.0043 deg
Eccentricity:    0.0010399
Arg of perigee:   350.1792 deg
Mean anomaly:     009.9190 deg
Mean motion:   14.12494404 rev/day
Decay rate:      -2.16e-06 rev/day^2
Epoch rev:           41087
Checksum:              300

Satellite: NOAA-17
Catalog number: 27453
Epoch time:      08254.63523026
Element set:    0085
Inclination:      098.5267 deg
RA of node:       316.7543 deg
Eccentricity:    0.0011243
Arg of perigee:   215.0243 deg
Mean anomaly:     145.0206 deg
Mean motion:   14.24001706 rev/day
Decay rate:       1.82e-06 rev/day^2
Epoch rev:           32296
Checksum:              268

Satellite: NOAA-18
Catalog number: 28654
Epoch time:      08254.63165498
Element set:    0572
Inclination:      098.8717 deg
RA of node:       194.5271 deg
Eccentricity:    0.0015437
Arg of perigee:   073.0762 deg
Mean anomaly:     287.2098 deg
Mean motion:   14.11189698 rev/day
Decay rate:       -9.4e-07 rev/day^2
Epoch rev:           17052
Checksum:              347

/EX
SB KEPS @ AMSAT  $ORB08255.M
Orbital Elements  08255.MISC

HR AMSAT ORBITAL ELEMENTS FOR MANNED AND MISCELLANEOUS SATELLITES
FROM WA5QGD FORT WORTH,TX September 11, 2008
Send Subscribe/unsubscribe to KEPS at 
http://www.amsat.org/mailman/listinfo/keps
BID: ORB08255.M
TO ALL RADIO AMATEURS BT

Satellite: HUBBLE
Catalog number: 20580
Epoch time:      08254.95275816
Element set:    0219
Inclination:      028.4675 deg
RA of node:       123.8301 deg
Eccentricity:    0.0003885
Arg of perigee:   212.6701 deg
Mean anomaly:     147.3653 deg
Mean motion:   15.00406242 rev/day
Decay rate:       3.50e-06 rev/day^2
Epoch rev:           80787
Checksum:              282

Satellite: PO-34
Catalog number: 25520
Epoch time:      08254.51194970
Element set:    0083
Inclination:      028.4597 deg
RA of node:       327.5175 deg
Eccentricity:    0.0005508
Arg of perigee:   137.4603 deg
Mean anomaly:     222.6419 deg
Mean motion:   15.17226285 rev/day
Decay rate:       4.07e-06 rev/day^2
Epoch rev:           54613
Checksum:              299

Satellite: ISS
Catalog number: 25544
Epoch time:      08255.49905867
Element set:     229
Inclination:      051.6425 deg
RA of node:       293.6415 deg
Eccentricity:    0.0007002
Arg of perigee:   102.3921 deg
Mean anomaly:     037.1452 deg
Mean motion:   15.72027705 rev/day
Decay rate:      6.927e-05 rev/day^2
Epoch rev:           56211
Checksum:              286

Satellite: CO-58
Catalog number: 28895
Epoch time:      08254.66917600
Element set:    0118
Inclination:      098.0860 deg
RA of node:       146.6125 deg
Eccentricity:    0.0018462
Arg of perigee:   138.9041 deg
Mean anomaly:     221.3614 deg
Mean motion:   14.59695659 rev/day
Decay rate:       2.42e-06 rev/day^2
Epoch rev:           15295
Checksum:              330

Satellite: FALCON
Catalog number: 30776
Epoch time:      08254.66672033
Element set:    0401
Inclination:      035.4351 deg
RA of node:       355.0570 deg
Eccentricity:    0.0001747
Arg of perigee:   353.0035 deg
Mean anomaly:     007.0657 deg
Mean motion:   15.03048021 rev/day
Decay rate:       2.92e-06 rev/day^2
Epoch rev:           08301
Checksum:              247

Satellite: MAST
Catalog number: 31126
Epoch time:      08255.22665618
Element set:     417
Inclination:      098.0319 deg
RA of node:       316.1876 deg
Eccentricity:    0.0095810
Arg of perigee:   065.5929 deg
Mean anomaly:     295.5244 deg
Mean motion:   14.53444034 rev/day
Decay rate:        3.7e-07 rev/day^2
Epoch rev:            7451
Checksum:              302

Satellite: CAPE1
Catalog number: 31130
Epoch time:      08255.81498783
Element set:     401
Inclination:      098.0329 deg
RA of node:       315.5638 deg
Eccentricity:    0.0103992
Arg of perigee:   067.3158 deg
Mean anomaly:     293.8993 deg
Mean motion:   14.51990211 rev/day
Decay rate:        7.6e-07 rev/day^2
Epoch rev:            7429
Checksum:              319

Satellite: COMPASS
Catalog number: 32787
Epoch time:      08254.35701524
Element set:    0145
Inclination:      097.9818 deg
RA of node:       313.9731 deg
Eccentricity:    0.0015109
Arg of perigee:   217.7791 deg
Mean anomaly:     142.2362 deg
Mean motion:   14.81458591 rev/day
Decay rate:       3.61e-06 rev/day^2
Epoch rev:           02001
Checksum:              290

Satellite: AAUSAT2
Catalog number: 32788
Epoch time:      08255.83289736
Element set:     145
Inclination:      097.9812 deg
RA of node:       315.4612 deg
Eccentricity:    0.0014568
Arg of perigee:   213.9807 deg
Mean anomaly:     146.0447 deg
Mean motion:   14.81568837 rev/day
Decay rate:        6.9e-07 rev/day^2
Epoch rev:            2023
Checksum:              327

Satellite: DO-64
Catalog number: 32789
Epoch time:      08254.83065951
Element set:    0161
Inclination:      097.9836 deg
RA of node:       314.4943 deg
Eccentricity:    0.0015082
Arg of perigee:   215.5595 deg
Mean anomaly:     144.4606 deg
Mean motion:   14.81468245 rev/day
Decay rate:       2.99e-06 rev/day^2
Epoch rev:           02008
Checksum:              329

Satellite: CO-66
Catalog number: 32791
Epoch time:      08254.43747248
Element set:    0149
Inclination:      097.9845 deg
RA of node:       314.0720 deg
Eccentricity:    0.0015284
Arg of perigee:   215.7708 deg
Mean anomaly:     144.2482 deg
Mean motion:   14.81311952 rev/day
Decay rate:       1.51e-06 rev/day^2
Epoch rev:           01999
Checksum:              320

Satellite: RS-30
Catalog number: 32953
Epoch time:      08255.45368943
Element set:     105
Inclination:      082.4973 deg
RA of node:       069.9371 deg
Eccentricity:    0.0019919
Arg of perigee:   067.2197 deg
Mean anomaly:     293.0990 deg
Mean motion:   12.42997338 rev/day
Decay rate:        1.0e-07 rev/day^2
Epoch rev:            1376
Checksum:              331

/EX





More information about the Keps mailing list